Wind_Speed
19 20 21 21 21 21 22 23 23 23 23 24 25 26 27 27 28 30 30 31 31 32 33 33 34 35 35 35 35 34 34 33 33 33 32 32 32 33
19 20 20 20 20 21 21 22 23 23 22 23 24 26 26 27 28 29 30 32 33 33 34 34 35 36 36 36 35 35 35 35 34 34 35 34 34 33
18 19 19 19 19 20 20 21 21 22 22 23 24 24 26 27 28 28 29 30 32 34 34 35 36 36 36 37 37 38 37 37 37 36 36 36 36 35
19 19 19 19 20 20 21 22 22 22 23 23 24 25 26 27 28 30 30 30 32 33 34 35 36 36 36 37 38 38 38 38 38 38 38 38 38 38
19 20 20 20 20 20 21 22 23 24 24 25 26 27 27 28 29 30 31 31 32 34 34 35 36 37 38 38 39 39 39 38 38 38 39 39 39 38
20 20 20 20 21 21 22 22 23 24 25 26 27 27 28 29 30 30 31 32 32 34 35 36 36 36 37 38 39 40 40 40 39 39 39 39 39 38
20 21 21 21 22 23 24 24 25 25 26 26 26 27 28 29 29 30 31 31 32 32 33 34 35 36 37 38 39 39 39 40 40 40 40 39 39 38
21 21 22 22 23 23 24 25 25 25 26 26 26 27 27 28 29 29 29 30 30 31 32 33 34 34 35 37 38 39 40 40 40 40 40 40 39 39
21 22 22 23 24 24 25 26 26 26 26 26 26 27 27 27 27 27 27 28 28 29 30 31 32 32 32 33 34 36 38 38 39 39 39 40 39 39
22 22 23 24 25 25 26 26 25 25 25 26 27 27 27 27 27 27 27 28 29 29 30 30 31 31 31 31 32 33 35 36 38 38 39 39 38 38
23 23 23 24 24 25 25 25 25 25 26 26 26 27 26 26 26 26 27 27 28 28 29 29 29 30 30 31 32 32 34 35 36 38 39 38 38 38
22 22 23 23 24 25 24 25 25 25 25 26 26 25 25 25 25 25 25 25 25 25 26 27 27 28 28 29 30 31 33 34 35 36 37 38 38 39
22 22 23 23 24 24 24 24 25 24 25 25 25 24 24 24 24 24 24 24 23 22 23 25 26 27 27 28 29 30 31 33 34 35 36 37 37 38
23 23 23 24 24 25 25 25 25 24 25 25 24 23 22 22 22 22 22 21 21 21 21 22 23 25 25 26 27 29 29 31 32 34 35 35 36 37
22 22 22 23 24 25 25 25 25 24 24 23 23 22 22 22 21 21 21 21 21 21 22 22 22 23 24 25 26 27 28 29 30 32 33 33 34 35
21 22 22 22 23 23 23 23 23 23 23 22 22 21 21 21 21 21 20 20 20 21 21 21 21 21 22 23 24 24 25 27 28 29 31 32 33 33
21 22 23 23 22 22 22 22 22 22 22 21 21 21 20 20 19 19 19 19 19 19 19 20 21 21 21 21 22 23 24 24 25 27 28 29 30 31
22 22 23 23 23 23 22 22 21 21 21 20 21 20 20 19 19 17 17 18 17 17 17 18 19 19 19 20 21 22 23 24 24 25 27 27 28 29
22 22 22 22 22 22 22 22 21 21 20 20 20 20 19 19 18 18 17 17 17 17 17 17 18 18 18 18 20 20 20 21 23 25 26 26 27 27
22 22 22 21 21 21 21 21 21 21 20 19 19 20 19 19 19 19 18 18 18 17 17 17 17 18 18 18 19 19 20 20 20 22 23 24 25 26
21 21 21 20 20 20 20 20 20 19 19 19 19 19 19 19 19 19 19 18 18 18 18 18 18 19 19 19 18 19 19 19 20 20 21 22 23 23
21 21 20 20 20 20 19 18 19 19 20 19 19 19 19 19 19 19 19 19 19 19 19 18 19 19 19 19 19 18 18 18 18 18 19 20 20 20
21 21 21 21 20 19 19 18 19 19 19 20 20 20 21 20 20 19 19 19 19 19 19 19 19 19 19 19 19 18 18 18 18 18 18 18 19 19
Wind_Direction
294 292 291 290 287 284 281 280 279 276 273 271 272 271 268 265 263 262 259 256 254 253 252 251 250 249 248 248 248 247 247 246 247 247 247 247 247 247
296 294 293 292 289 287 286 285 282 279 275 276 274 272 270 268 265 263 260 257 255 254 253 252 251 249 247 248 249 248 248 248 248 248 248 248 249 250
294 295 295 293 293 292 291 290 288 283 280 279 279 276 273 270 267 265 264 260 257 254 253 252 251 249 248 248 247 249 250 250 249 248 248 248 249 250
298 299 298 297 296 294 292 292 290 287 285 284 282 280 278 273 270 267 266 263 260 258 256 253 250 250 250 250 248 249 250 250 249 248 248 248 249 249
298 299 299 297 296 294 293 292 290 288 287 287 284 283 281 278 274 272 268 265 262 259 257 255 254 253 251 250 251 250 250 250 248 249 249 249 249 249
296 297 298 298 296 295 294 294 292 289 288 286 284 281 280 279 276 274 272 269 266 262 258 256 255 255 254 252 251 251 250 250 249 249 249 250 249 249
297 297 298 299 297 295 293 293 292 291 290 289 287 282 280 279 277 275 273 271 269 267 263 259 256 255 254 252 252 252 251 250 249 250 250 250 250 250
297 297 299 299 299 299 297 296 295 293 292 291 289 287 284 282 279 277 273 270 268 266 264 262 259 257 256 254 252 252 250 250 249 250 249 249 250 250
299 298 299 300 300 299 299 298 297 296 295 294 291 289 287 283 281 279 276 272 268 265 263 263 261 258 257 256 253 250 248 248 249 249 250 249 249 249
300 300 299 299 299 299 298 298 298 297 296 295 293 291 289 287 283 279 276 274 271 268 266 264 261 258 257 256 254 252 248 247 247 247 247 248 248 249
303 302 301 301 301 301 301 300 299 298 297 296 295 295 292 290 287 283 279 276 273 268 266 264 260 257 256 255 254 252 249 248 247 247 246 247 248 249
306 305 304 305 305 305 303 302 301 299 298 297 297 296 294 292 288 285 283 281 276 270 266 262 260 258 257 256 254 252 250 248 248 248 247 248 249 248
307 306 305 306 306 306 305 305 304 301 300 299 298 297 295 292 290 286 284 282 278 274 270 265 262 259 259 257 255 255 252 249 248 248 249 249 249 248
308 307 304 305 306 306 305 305 305 304 301 300 301 299 297 295 291 288 287 282 279 276 272 269 265 262 260 258 257 255 253 251 248 247 248 249 249 248
310 309 308 309 308 308 307 305 305 305 304 302 300 299 297 296 293 289 286 282 279 276 272 270 268 266 264 262 260 257 254 253 250 249 248 249 249 250
308 308 310 312 311 312 311 308 307 306 305 304 302 300 299 298 295 291 288 285 280 277 276 273 270 269 267 266 263 260 257 255 253 252 250 249 250 250
312 312 311 310 309 309 309 310 309 308 307 304 303 302 301 300 298 295 291 286 281 278 277 274 272 272 269 267 264 260 258 256 254 251 250 250 250 251
315 314 313 311 309 309 309 310 311 310 309 307 307 306 304 303 302 299 294 290 283 278 275 274 274 274 272 268 265 261 260 259 257 255 254 253 251 251
320 319 317 315 314 312 310 310 312 311 309 306 307 307 306 304 303 301 297 294 290 281 276 274 275 274 272 269 266 263 262 260 259 256 254 253 251 250
324 323 322 321 320 318 315 313 314 313 310 307 306 306 306 303 301 300 298 295 292 285 280 277 276 274 273 272 270 267 265 265 261 258 255 252 251 251
327 327 327 325 322 320 319 317 316 315 311 308 307 307 306 304 300 298 297 295 292 286 281 278 275 275 275 274 273 271 267 264 262 261 257 254 252 252
329 329 329 327 325 324 322 321 319 317 315 311 309 308 306 305 301 298 297 296 293 288 281 277 275 274 275 274 274 273 267 264 265 265 261 258 255 253
331 331 330 328 326 325 323 320 319 319 317 315 312 310 307 303 300 298 296 295 294 291 285 279 276 274 272 272 273 270 266 264 264 265 262 259 258 257
Height
5766 5764 5763 5762 5761 5760 5759 5758 5758 5758 5758 5757 5757 5757 5758 5759 5760 5761 5762 5763 5765 5767 5769 5772 5774 5777 5780 5783 5786 5788 5791 5794 5796 5799 5802 5804 5806 5809
5761 5760 5758 5757 5755 5754 5753 5752 5752 5751 5751 5751 5750 5750 5750 5751 5752 5753 5753 5754 5756 5758 5760 5762 5765 5768 5770 5773 5776 5779 5782 5785 5788 5790 5793 5796 5798 5801
5757 5755 5753 5752 5751 5749 5748 5747 5746 5745 5744 5744 5743 5743 5743 5743 5743 5744 5744 5745 5747 5748 5750 5752 5755 5757 5760 5763 5767 5770 5772 5775 5778 5781 5784 5787 5789 5792
5752 5750 5749 5747 5746 5744 5743 5742 5740 5739 5738 5738 5737 5736 5735 5735 5735 5735 5736 5736 5738 5739 5740 5742 5745 5747 5750 5753 5756 5759 5762 5765 5768 5771 5774 5777 5780 5782
5747 5745 5744 5743 5741 5739 5738 5736 5735 5734 5732 5731 5730 5729 5728 5727 5727 5726 5727 5727 5728 5729 5731 5732 5734 5737 5739 5742 5745 5748 5751 5755 5758 5761 5764 5767 5770 5772
5742 5741 5739 5737 5736 5734 5733 5731 5729 5727 5726 5724 5723 5721 5720 5719 5718 5718 5717 5717 5718 5719 5720 5722 5724 5726 5729 5731 5734 5737 5740 5743 5746 5749 5753 5756 5759 5762
5737 5736 5734 5732 5730 5728 5727 5725 5722 5720 5718 5717 5715 5713 5712 5710 5709 5709 5708 5708 5708 5709 5710 5711 5713 5716 5717 5720 5722 5725 5729 5732 5735 5739 5742 5745 5748 5751
5732 5730 5728 5727 5724 5722 5720 5718 5716 5714 5711 5709 5707 5705 5703 5702 5700 5699 5699 5699 5700 5700 5700 5701 5702 5704 5706 5709 5711 5714 5717 5720 5724 5728 5731 5734 5737 5740
5727 5725 5723 5721 5719 5716 5714 5711 5709 5706 5704 5702 5700 5697 5695 5693 5692 5691 5689 5689 5690 5690 5690 5691 5693 5694 5696 5698 5700 5703 5706 5709 5713 5716 5720 5723 5726 5729
5721 5719 5717 5715 5713 5710 5708 5705 5702 5699 5697 5694 5692 5689 5687 5685 5683 5682 5681 5680 5680 5681 5681 5682 5683 5684 5686 5688 5690 5692 5695 5698 5701 5705 5708 5712 5715 5718
5716 5713 5711 5709 5706 5704 5701 5698 5695 5692 5689 5687 5684 5682 5679 5677 5675 5673 5672 5671 5671 5672 5672 5672 5673 5675 5676 5678 5680 5682 5684 5687 5690 5694 5697 5701 5704 5707
5711 5708 5705 5703 5700 5697 5694 5692 5689 5686 5683 5680 5677 5674 5672 5669 5667 5665 5664 5663 5663 5663 5663 5663 5664 5665 5667 5669 5671 5672 5674 5677 5680 5683 5686 5689 5692 5695
5705 5702 5699 5696 5694 5691 5688 5685 5682 5678 5676 5673 5670 5667 5665 5662 5660 5658 5657 5656 5656 5656 5655 5655 5656 5657 5658 5661 5662 5663 5665 5667 5670 5673 5675 5678 5681 5684
5698 5696 5693 5690 5688 5684 5681 5678 5675 5672 5669 5666 5663 5661 5658 5656 5654 5652 5650 5649 5649 5649 5648 5648 5648 5649 5650 5652 5653 5654 5655 5657 5660 5662 5665 5668 5670 5673
5693 5690 5687 5684 5681 5678 5675 5671 5668 5665 5662 5659 5657 5655 5652 5650 5648 5646 5644 5643 5642 5642 5641 5641 5641 5641 5642 5643 5644 5645 5647 5648 5650 5652 5655 5657 5660 5662
5687 5685 5681 5678 5675 5672 5669 5665 5662 5659 5656 5653 5651 5649 5646 5644 5642 5640 5638 5637 5636 5636 5635 5634 5634 5635 5635 5635 5636 5637 5638 5640 5641 5643 5644 5647 5649 5652
5682 5679 5676 5673 5669 5666 5663 5660 5657 5653 5650 5647 5645 5643 5640 5638 5636 5634 5632 5631 5630 5629 5629 5628 5628 5628 5628 5628 5628 5629 5630 5631 5632 5634 5635 5637 5640 5642
5676 5673 5670 5666 5663 5660 5657 5654 5651 5648 5645 5642 5640 5637 5635 5633 5631 5628 5626 5625 5624 5623 5622 5622 5621 5621 5621 5621 5621 5621 5622 5623 5624 5625 5626 5628 5631 5632
5670 5667 5663 5660 5656 5653 5650 5648 5645 5643 5640 5637 5635 5632 5630 5628 5625 5623 5621 5620 5618 5617 5616 5616 5615 5614 5614 5615 5614 5614 5615 5615 5616 5616 5617 5619 5621 5623
5665 5662 5658 5654 5651 5648 5645 5642 5640 5637 5635 5632 5630 5628 5625 5623 5620 5618 5616 5614 5612 5611 5610 5609 5609 5608 5608 5608 5608 5607 5607 5608 5608 5608 5609 5610 5612 5614
5661 5657 5653 5650 5646 5643 5640 5638 5635 5632 5629 5627 5625 5622 5620 5617 5615 5613 5611 5609 5607 5605 5604 5604 5603 5602 5601 5601 5601 5601 5600 5600 5601 5601 5602 5603 5604 5606
5657 5653 5650 5646 5643 5639 5636 5633 5630 5628 5625 5622 5620 5617 5615 5612 5610 5607 5605 5603 5601 5599 5598 5597 5596 5595 5595 5595 5595 5594 5594 5594 5594 5594 5595 5596 5597 5599
5654 5650 5646 5642 5639 5635 5632 5629 5626 5623 5620 5617 5615 5612 5609 5606 5604 5602 5600 5597 5595 5593 5592 5591 5590 5589 5588 5588 5588 5588 5588 5588 5588 5589 5589 5590 5591 5592